Home   Weather   Zell am See   Past weeks
Flag for Austria

Past Weather in Zell am See, Salzburg, Austria — Yesterday and Last 2 Weeks

Now
39 °F

Partly sunny.


Feels Like: 30 °F
Forecast: 38 / 26 °F
Wind: 18 mph from Northwest

Location: Salzburg-Flughafen

Current Time: Feb 26, 2020 at 9:16:43 am

Latest Report: Feb 26, 2020 at 8:20 am


Visibility: N/A

Pressure: 29.56 "Hg (26.91 "Hg at 761m altitude)

Humidity: 61%

Dew Point: 27 °F

Location of Zell am SeeLocation

Past Weather in Zell am See — Graph

°F

Zell am See Temperature Yesterday

Maximum temperature yesterday: 52 °F (at 2:50 pm)
Minimum temperature yesterday: 39 °F (at 2:50 am)
Average temperature yesterday: 45 °F

High & Low Weather Summary for the Past Weeks

 TemperatureHumidityPressure
High66 °F (Feb 23, 7:20 pm)100% (Feb 17, 7:50 pm)30.45 "Hg (Feb 17, 7:50 pm)
Low30 °F (Feb 21, 8:50 pm)25% (Feb 22, 1:50 pm)29.47 "Hg (Feb 26, 4:50 am)
Average43 °F66%30.11 "Hg
* Reported Feb 11 7:20 am — Feb 26 7:50 am, Zell am See. Weather by CustomWeather, © 2020

Note: Actual official high and low records may vary slightly from our data, if they occured in-between our weather recording intervals... More about our weather records

Zell am See Weather History for the Previous 24 Hours

Scroll right to see more
 ConditionsComfort  
Time TempWeatherWind HumidityBarometerVisibility
7:50 am
Wed, Feb 26
39 °FBroken clouds.22 mph56%29.56 "HgN/A
7:20 am41 °FBroken clouds.15 mph57%29.53 "HgN/A
6:50 am41 °FPartly cloudy.15 mph66%29.53 "HgN/A
6:20 am41 °FPartly cloudy.12 mph70%29.50 "HgN/A
5:50 am41 °FPassing clouds.12 mph76%29.50 "HgN/A
5:20 am41 °FSprinkles. Partly cloudy.16 mph76%29.50 "Hg4 mi
4:50 am39 °FLight rain. Partly cloudy.8 mph87%29.47 "HgN/A
4:20 am39 °FLight rain. Partly cloudy.9 mph87%29.50 "HgN/A
3:50 am39 °FLight rain. Partly cloudy.12 mph87%29.50 "HgN/A
3:20 am39 °FLight rain. Partly cloudy.9 mph93%29.53 "HgN/A
2:50 am41 °FLight rain. Partly cloudy.6 mph81%29.53 "HgN/A
2:20 am41 °FLight rain. Partly cloudy.9 mph76%29.56 "HgN/A
1:50 am41 °FSprinkles. Partly cloudy.10 mph81%29.56 "HgN/A
1:20 am45 °FSprinkles. Overcast.15 mph66%29.56 "HgN/A
12:50 am46 °FOvercast.6 mph66%29.53 "HgN/A
12:20 am43 °FSprinkles. Partly cloudy.3 mph93%29.53 "HgN/A
11:50 pm
Tue, Feb 25
43 °FPassing clouds.5 mph93%29.53 "HgN/A
11:20 pm43 °FSprinkles. Passing clouds.5 mph87%29.53 "HgN/A
10:20 pm43 °FPartly cloudy.3 mph87%29.56 "HgN/A
9:50 pm45 °FLight rain. Passing clouds.3 mph81%29.59 "HgN/A
9:20 pm43 °FPassing clouds.7 mph87%29.59 "HgN/A
8:50 pm46 °FPassing clouds.5 mph71%29.59 "HgN/A
8:20 pm48 °FPartly cloudy.6 mph66%29.59 "HgN/A
7:50 pm50 °FPartly cloudy.8 mph62%29.62 "HgN/A
7:20 pm48 °FPassing clouds.7 mph66%29.62 "HgN/A
6:50 pm48 °FPartly cloudy.5 mph66%29.62 "HgN/A
6:20 pm50 °FPassing clouds.5 mph58%29.62 "HgN/A
5:50 pm50 °FPassing clouds.5 mph58%29.62 "HgN/A
5:20 pm52 °FPartly sunny.6 mph54%29.62 "HgN/A
4:50 pm52 °FPartly sunny.7 mph54%29.62 "HgN/A
4:20 pm52 °FPartly sunny.7 mph54%29.62 "HgN/A
3:50 pm50 °FPartly sunny.3 mph71%29.62 "HgN/A
3:20 pm50 °FPartly sunny.5 mph71%29.62 "HgN/A
2:50 pm52 °FPartly sunny.5 mph67%29.62 "HgN/A
2:20 pm50 °FPartly sunny.7 mph71%29.65 "HgN/A
1:50 pm50 °FPartly sunny.7 mph71%29.65 "HgN/A
1:20 pm50 °FSunny.6 mph67%29.65 "Hg10 mi
12:50 pm50 °FSunny.6 mph67%29.68 "Hg10 mi
12:20 pm48 °FSunny.8 mph71%29.68 "Hg10 mi
11:50 am48 °FPassing clouds.8 mph71%29.71 "HgN/A
11:20 am46 °FSunny.8 mph76%29.71 "Hg10 mi
10:50 am45 °FSunny.10 mph76%29.71 "Hg10 mi
10:20 am45 °FSunny.9 mph76%29.74 "Hg10 mi
9:50 am43 °FSunny.8 mph81%29.74 "Hg10 mi
9:20 am43 °FSunny.13 mph81%29.74 "Hg10 mi
Weather by CustomWeather, © 2020

See weather overview

Advertising